"Pseudo-MPEC" for C10HV11

Created 2020 Mar 3 22:07:04 UT using Find_Orb

Click here for an explanation of pseudo-MPECs

 
 Astrometry: 
     C10HV11  C2020 02 17.23018 09 06 42.88 +44 39 41.2    ~2H6M       VNEOCP703
     C10HV11  C2020 02 17.23555 09 06 39.05 +44 45 04.2    ~2H6M 18.9 GVNEOCP703
     C10HV11  C2020 02 17.24096 09 06 35.28 +44 50 29.2    ~2H6M 19.5 GVNEOCP703
     C10HV11  C2020 02 17.28193309 06 09.26 +45 30 25.5    ~2HAq 18.46RUNEOCPI41
     C10HV11  C2020 02 17.28228009 06 08.93 +45 30 45.2    ~2HAq 18.46RUNEOCPI41
     C10HV11  C2020 02 17.28284709 06 08.64 +45 31 18.9    ~2HAq 18.53RUNEOCPI41
     C10HV11  C2020 02 17.28319409 06 08.31 +45 31 38.6    ~2HAq 18.53RUNEOCPI41
     C10HV11  C2020 02 17.28573 09 06 03.42 +45 34 10.6    ~2H77 18.5 GVNEOCPI52
     C10HV11  C2020 02 17.28647 09 06 02.89 +45 34 53.1    ~2H77 18.5 GVNEOCPI52
     C10HV11  C2020 02 17.28795 09 06 01.83 +45 36 18.9    ~2H77 18.7 GVNEOCPI52

Station data:
(703) Catalina Sky Survey  (N32.417006 W110.732640)  US/Arizona.  Observers
   T. A. Pruyne, B. M. Africano, E. J. Christensen, G. A. Farneth, D. C.
   Fuls, A. R. Gibbs, A. D. Grauer, H. Gröller, J. A. Johnson, R. A.
   Kowalski, S. M. Larson, G. J. Leonard, D. Rankin, R. L. Seaman, F. C.
   Shelly. 0.68 m Schmidt + 10K CCD.
(I41) Palomar Mountain--ZTF  (N33.357340 W116.859780)  US/California. 1.2-m
   f/2.44 Oschin Schmidt + CCD.
(I52) Steward Observatory, Mt. Lemmon Station  (N32.442547 W110.788920)
   US/Arizona.  Observers T. A. Pruyne, B. M. Africano, E. J. Christensen, G.
   A. Farneth, D. C. Fuls, A. R. Gibbs, A. D. Grauer, H. Gröller, J. A.
   Johnson, R. A. Kowalski, S. M. Larson, G. J. Leonard, D. Rankin, R. L.
   Seaman, F. C. Shelly. 1.0-m reflector + CCD.

Orbital elements:  C10HV11
   Perihelion 2019 Nov 21.171887 +/- 6.47 TT =  4:07:31 (JD 2458808.671887)
Epoch 2020 Feb 17.0 TT = JDT 2458896.5   Earth MOID: 0.0144   Ve: 0.0416
M  95.87112942 +/- 9                (J2000 ecliptic)          AutoNEOCP
n   1.09157679 +/- 0.0219           Peri.  239.32148 +/- 4.6
a   0.93418563 +/- 0.0125           Node   146.46122 +/- 0.050
e   0.2394899 +/- 0.0302            Incl.   35.98661 +/- 1.5
P   0.90/329.79d           H 25.8   G  0.15   U 10.2  
q 0.71045753 +/- 0.019    Q 1.15791374 +/- 0.0429
From 10 observations 2020 Feb. 17 (83.2 min); mean residual 0".38
Residuals in arcseconds: 
200217 703  .05-  .13-    200217 I41  .59-  .62-    200217 I52  .00   .20-    
200217 703  .32-  .33-    200217 I41  .59+  .35+    200217 I52  .09-  .75+    
200217 703  .42+  .61+    200217 I41  .30-  .03+    
200217 I41  .30+  .28-    200217 I52  .05+  .23-    

Ephemerides (geocentric):
Date (UTC) HH   RA              Dec         delta   r     elong  mag " sig PA
---- -- -- --  -------------   -----------  ------ ------ -----  --- ---- ---
2020 03 03 22  08 19 51.558   +77 05 00.93  .19088 1.0610 106.3 24.6  439 159
2020 03 03 23  08 19 51.453   +77 05 24.44  .19133 1.0612 106.3 24.6  440 159
2020 03 04 00  08 19 51.369   +77 05 47.77  .19178 1.0613 106.2 24.6  440 159
2020 03 04 01  08 19 51.305   +77 06 10.92  .19223 1.0614 106.2 24.6  440 159
2020 03 04 02  08 19 51.261   +77 06 33.88  .19268 1.0615 106.2 24.6  440 159
2020 03 04 03  08 19 51.238   +77 06 56.67  .19312 1.0617 106.2 24.6  441 159
2020 03 04 04  08 19 51.235   +77 07 19.28  .19357 1.0618 106.1 24.6  441 159
2020 03 04 05  08 19 51.252   +77 07 41.72  .19402 1.0619 106.1 24.6  441 159
2020 03 04 06  08 19 51.290   +77 08 03.98  .19447 1.0621 106.1 24.6  442 159
2020 03 04 07  08 19 51.348   +77 08 26.06  .19491 1.0622 106.1 24.6  442 159
2020 03 04 08  08 19 51.425   +77 08 47.97  .19536 1.0623 106.0 24.6  442 159
2020 03 04 09  08 19 51.523   +77 09 09.71  .19581 1.0624 106.0 24.6  442 159
2020 03 04 10  08 19 51.640   +77 09 31.29  .19626 1.0626 106.0 24.6  443 159
2020 03 04 11  08 19 51.778   +77 09 52.69  .19670 1.0627 105.9 24.6  443 159
2020 03 04 12  08 19 51.935   +77 10 13.92  .19715 1.0628 105.9 24.6  443 159
2020 03 04 13  08 19 52.112   +77 10 34.99  .19760 1.0629 105.9 24.6  443 159
2020 03 04 14  08 19 52.308   +77 10 55.88  .19805 1.0631 105.9 24.6  444 159
2020 03 04 15  08 19 52.524   +77 11 16.62  .19849 1.0632 105.8 24.6  444 159
2020 03 04 16  08 19 52.759   +77 11 37.19  .19894 1.0633 105.8 24.7  444 159
2020 03 04 17  08 19 53.014   +77 11 57.60  .19939 1.0635 105.8 24.7  444 159
2020 03 04 18  08 19 53.288   +77 12 17.84  .19983 1.0636 105.8 24.7  445 159
2020 03 04 19  08 19 53.581   +77 12 37.93  .20028 1.0637 105.7 24.7  445 159
2020 03 04 20  08 19 53.893   +77 12 57.85  .20073 1.0638 105.7 24.7  445 159
2020 03 04 21  08 19 54.225   +77 13 17.62  .20118 1.0640 105.7 24.7  445 159
2020 03 04 22  08 19 54.576   +77 13 37.23  .20162 1.0641 105.7 24.7  446 159
2020 03 04 23  08 19 54.945   +77 13 56.68  .20207 1.0642 105.6 24.7  446 159
2020 03 05 00  08 19 55.334   +77 14 15.98  .20252 1.0643 105.6 24.7  446 159
2020 03 05 01  08 19 55.741   +77 14 35.12  .20296 1.0645 105.6 24.7  446 159
2020 03 05 02  08 19 56.167   +77 14 54.11  .20341 1.0646 105.6 24.7  447 159
2020 03 05 03  08 19 56.612   +77 15 12.94  .20386 1.0647 105.5 24.7  447 159
2020 03 05 04  08 19 57.075   +77 15 31.63  .20430 1.0648 105.5 24.7  447 159
2020 03 05 05  08 19 57.557   +77 15 50.16  .20475 1.0650 105.5 24.7  447 159
2020 03 05 06  08 19 58.058   +77 16 08.54  .20519 1.0651 105.5 24.7  448 159
2020 03 05 07  08 19 58.577   +77 16 26.78  .20564 1.0652 105.4 24.7  448 159
2020 03 05 08  08 19 59.114   +77 16 44.86  .20609 1.0654 105.4 24.7  448 159
2020 03 05 09  08 19 59.670   +77 17 02.80  .20653 1.0655 105.4 24.7  448 159
2020 03 05 10  08 20 00.244   +77 17 20.59  .20698 1.0656 105.4 24.7  449 159
2020 03 05 11  08 20 00.836   +77 17 38.24  .20742 1.0657 105.3 24.7  449 159
2020 03 05 12  08 20 01.446   +77 17 55.74  .20787 1.0659 105.3 24.8  449 159
2020 03 05 13  08 20 02.074   +77 18 13.10  .20832 1.0660 105.3 24.8  449 159
2020 03 05 14  08 20 02.720   +77 18 30.31  .20876 1.0661 105.3 24.8  450 159
2020 03 05 15  08 20 03.384   +77 18 47.39  .20921 1.0662 105.2 24.8  450 159
2020 03 05 16  08 20 04.066   +77 19 04.32  .20965 1.0664 105.2 24.8  450 159
2020 03 05 17  08 20 04.766   +77 19 21.11  .21010 1.0665 105.2 24.8  450 159
2020 03 05 18  08 20 05.484   +77 19 37.77  .21054 1.0666 105.2 24.8  451 159
2020 03 05 19  08 20 06.219   +77 19 54.28  .21099 1.0667 105.1 24.8  451 159
2020 03 05 20  08 20 06.972   +77 20 10.66  .21144 1.0669 105.1 24.8  451 159
2020 03 05 21  08 20 07.742   +77 20 26.90  .21188 1.0670 105.1 24.8  451 159